Time,TemperatureF,DewpointF,PressureIn,WindDirection,WindDirectionDegrees,WindSpeedMPH,WindSpeedGustMPH,Humidity,HourlyPrecipIn,Conditions,Clouds,dailyrainin,SolarRadiationWatts/m^2,SoftwareType,DateUTC
2013-02-20 00:02:00,51.0,39.0,-100.00,West,278,5.0,17.0,64,0.00,,,0.18,0.000000,,2013-02-20 05:02:00,
2013-02-20 00:52:00,48.0,38.0,-100.00,West,270,4.0,8.0,67,0.00,,,0.18,0.000000,,2013-02-20 05:52:00,
2013-02-20 01:52:00,46.0,36.0,-100.00,West,267,3.0,9.0,69,0.00,,,0.18,0.000000,,2013-02-20 06:52:00,
2013-02-20 02:52:00,45.0,36.0,-100.00,West,262,3.0,7.0,71,0.00,,,0.18,0.000000,,2013-02-20 07:52:00,
2013-02-20 03:52:00,43.0,34.0,-100.00,West,268,4.0,7.0,71,0.00,,,0.18,0.000000,,2013-02-20 08:52:00,
2013-02-20 04:52:00,43.0,34.0,-100.00,West,273,3.0,7.0,70,0.00,,,0.18,0.000000,,2013-02-20 09:52:00,
2013-02-20 05:52:00,42.0,31.0,-100.00,West,275,3.0,10.0,65,0.00,,,0.18,0.000000,,2013-02-20 10:52:00,
2013-02-20 06:02:00,42.0,31.0,-100.00,West,275,3.0,10.0,65,0.00,,,0.18,0.000000,,2013-02-20 11:02:00,
2013-02-20 06:52:00,39.0,28.0,-100.00,West,266,2.0,7.0,64,0.00,,,0.18,0.000000,,2013-02-20 11:52:00,
2013-02-20 07:02:00,39.0,28.0,-100.00,West,266,2.0,7.0,64,0.00,,,0.18,0.000000,,2013-02-20 12:02:00,
2013-02-20 07:12:00,39.0,28.0,-100.00,West,266,2.0,7.0,64,0.00,,,0.18,0.000000,,2013-02-20 12:12:00,
2013-02-20 07:22:00,39.0,28.0,-100.00,West,266,2.0,7.0,64,0.00,,,0.18,0.000000,,2013-02-20 12:22:00,
2013-02-20 07:53:00,42.0,28.0,-100.00,West,280,3.0,8.0,58,0.00,,,0.18,26.000000,,2013-02-20 12:53:00,
2013-02-20 08:02:00,42.0,28.0,-100.00,West,280,3.0,8.0,58,0.00,,,0.18,26.000000,,2013-02-20 13:02:00,
2013-02-20 08:12:00,42.0,28.0,-100.00,West,280,3.0,8.0,58,0.00,,,0.18,26.000000,,2013-02-20 13:12:00,
2013-02-20 08:22:00,42.0,28.0,-100.00,West,280,3.0,8.0,58,0.00,,,0.18,26.000000,,2013-02-20 13:22:00,
2013-02-20 09:52:00,46.0,27.0,-100.00,West,280,5.0,15.0,48,-99.99,,,0.18,81.000000,,2013-02-20 14:52:00,
2013-02-20 10:02:00,46.0,27.0,-100.00,West,280,5.0,15.0,48,-99.99,,,0.18,81.000000,,2013-02-20 15:02:00,
2013-02-20 10:12:00,46.0,27.0,-100.00,West,280,5.0,15.0,48,-99.99,,,0.18,81.000000,,2013-02-20 15:12:00,
2013-02-20 10:22:00,46.0,27.0,-100.00,West,280,5.0,15.0,48,-99.99,,,0.18,81.000000,,2013-02-20 15:22:00,
2013-02-20 10:52:00,50.0,29.0,-100.00,WNW,287,6.0,15.0,45,0.00,,,0.18,569.000000,,2013-02-20 15:52:00,
2013-02-20 11:01:00,50.0,29.0,-100.00,WNW,287,6.0,15.0,45,0.00,,,0.18,569.000000,,2013-02-20 16:01:00,
2013-02-20 11:12:00,50.0,29.0,-100.00,WNW,287,6.0,15.0,45,0.00,,,0.18,569.000000,,2013-02-20 16:12:00,
2013-02-20 12:21:00,52.0,29.0,-100.00,WNW,294,6.0,15.0,41,0.00,,,0.18,727.000000,,2013-02-20 17:21:00,
2013-02-20 12:52:00,53.0,29.0,-100.00,West,277,6.0,14.0,40,0.00,,,0.18,785.000000,,2013-02-20 17:52:00,
2013-02-20 13:52:00,54.0,30.0,-100.00,WNW,296,5.0,13.0,39,0.00,,,0.18,786.000000,,2013-02-20 18:52:00,
2013-02-20 14:52:00,56.0,31.0,-100.00,WNW,294,5.0,13.0,38,0.00,,,0.11,714.000000,,2013-02-20 19:52:00,
2013-02-20 15:01:00,56.0,31.0,-100.00,WNW,294,5.0,13.0,38,0.00,,,0.11,714.000000,,2013-02-20 20:01:00,
2013-02-20 15:11:00,56.0,31.0,-100.00,WNW,294,5.0,13.0,38,0.00,,,0.11,714.000000,,2013-02-20 20:11:00,
2013-02-20 15:21:00,56.0,31.0,-100.00,WNW,294,5.0,13.0,38,0.00,,,0.11,714.000000,,2013-02-20 20:21:00,
2013-02-20 15:52:00,56.0,31.0,-100.00,WNW,286,4.0,12.0,38,0.00,,,0.00,562.000000,,2013-02-20 20:52:00,
2013-02-20 16:01:00,56.0,31.0,-100.00,WNW,286,4.0,12.0,38,0.00,,,0.00,562.000000,,2013-02-20 21:01:00,
2013-02-20 16:11:00,56.0,31.0,-100.00,WNW,286,4.0,12.0,38,0.00,,,0.00,562.000000,,2013-02-20 21:11:00,
2013-02-20 16:21:00,56.0,31.0,-100.00,WNW,286,4.0,12.0,38,0.00,,,0.00,562.000000,,2013-02-20 21:21:00,
2013-02-20 16:52:00,52.0,33.0,-100.00,North,3,3.0,9.0,48,0.00,,,0.00,378.000000,,2013-02-20 21:52:00,
2013-02-20 18:12:00,49.0,30.0,-100.00,West,277,3.0,7.0,47,0.00,,,0.00,97.000000,,2013-02-20 23:12:00,
2013-02-20 18:22:00,49.0,30.0,-100.00,West,277,3.0,7.0,47,0.00,,,0.00,97.000000,,2013-02-20 23:22:00,
2013-02-20 18:53:00,43.0,27.0,-100.00,West,271,3.0,6.0,53,0.00,,,0.00,9.000000,,2013-02-20 23:53:00,
2013-02-20 19:03:00,43.0,27.0,-100.00,West,271,3.0,6.0,53,0.00,,,0.00,9.000000,,2013-02-21 00:03:00,
2013-02-20 19:11:00,43.0,27.0,-100.00,West,271,3.0,6.0,53,0.00,,,0.00,9.000000,,2013-02-21 00:11:00,
2013-02-20 19:22:00,43.0,27.0,-100.00,West,271,3.0,6.0,53,0.00,,,0.00,9.000000,,2013-02-21 00:22:00,
2013-02-20 19:52:00,42.0,28.0,-100.00,West,262,2.0,5.0,58,0.00,,,0.00,0.000000,,2013-02-21 00:52:00,
2013-02-20 20:01:00,42.0,28.0,-100.00,West,262,2.0,5.0,58,0.00,,,0.00,0.000000,,2013-02-21 01:01:00,
2013-02-20 20:12:00,42.0,28.0,-100.00,West,262,2.0,5.0,58,0.00,,,0.00,0.000000,,2013-02-21 01:12:00,
2013-02-20 20:21:00,42.0,28.0,-100.00,West,262,2.0,5.0,58,0.00,,,0.00,0.000000,,2013-02-21 01:21:00,
2013-02-20 20:52:00,42.0,29.0,-100.00,WSW,252,2.0,4.0,59,0.00,,,0.00,0.000000,,2013-02-21 01:52:00,
2013-02-20 21:02:00,42.0,29.0,-100.00,WSW,252,2.0,4.0,59,0.00,,,0.00,0.000000,,2013-02-21 02:02:00,
2013-02-20 21:11:00,42.0,29.0,-100.00,WSW,252,2.0,4.0,59,0.00,,,0.00,0.000000,,2013-02-21 02:11:00,
2013-02-20 21:22:00,42.0,29.0,-100.00,WSW,252,2.0,4.0,59,0.00,,,0.00,0.000000,,2013-02-21 02:22:00,
2013-02-20 22:02:00,40.0,27.0,-100.00,WSW,256,3.0,5.0,59,0.00,,,0.00,0.000000,,2013-02-21 03:02:00,
2013-02-20 22:12:00,40.0,27.0,-100.00,WSW,256,3.0,5.0,59,0.00,,,0.00,0.000000,,2013-02-21 03:12:00,
2013-02-20 22:21:00,40.0,27.0,-100.00,WSW,256,3.0,5.0,59,0.00,,,0.00,0.000000,,2013-02-21 03:21:00,
2013-02-20 22:52:00,39.0,29.0,-100.00,WSW,255,2.0,4.0,66,0.00,,,0.00,0.000000,,2013-02-21 03:52:00,
2013-02-20 23:01:00,39.0,29.0,-100.00,WSW,255,2.0,4.0,66,0.00,,,0.00,0.000000,,2013-02-21 04:01:00,
2013-02-20 23:11:00,39.0,29.0,-100.00,WSW,255,2.0,4.0,66,0.00,,,0.00,0.000000,,2013-02-21 04:11:00,
2013-02-20 23:22:00,39.0,29.0,-100.00,WSW,255,2.0,4.0,66,0.00,,,0.00,0.000000,,2013-02-21 04:22:00,
2013-02-20 23:52:00,37.0,28.0,-100.00,WSW,250,2.0,5.0,69,0.00,,,0.00,0.000000,,2013-02-21 04:52:00,